Tracking 19246 objects as of 21-Aug-2018
HD Live streaming from Space Station
objects crossing your sky now

IRIDIUM 95

Track IRIDIUM 95 now!
10-day predictions
IRIDIUM 95 is classified as:


NORAD ID: 27375
Int'l Code: 2002-005D
Perigee: 782.9 km
Apogee: 786.7 km
Inclination: 86.4 °
Period: 100.4 minutes
Semi major axis: 7155 km
RCS: 3.5114 m2 (large)
Launch date: February 11, 2002
Source: United States (US)
Launch site: AIR FORCE WESTERN TEST RANGE (AFWTR)

Spare; stored in 667 km storage orbit, not raised to 780 km operational orbit until needed
aabbcc
Your satellite tracking list
Your tracking list is empty




NASA's NSSDC Master Catalog

Two Line Element Set (TLE):
1 27375U 02005D   18232.62029611 +.00000096 +00000-0 +27279-4 0  9990
2 27375 086.3949 107.7428 0002694 097.0253 263.1249 14.34219808872432
Source of the keplerian elements: AFSPC